Regional Weather Roundup
Issued by NWS

Home | Current Version | Previous Version | Text Only | Print | Product List | Glossary Off
Versions: 1 2 3 4 5 6 7 8 9 10 11 12 13 14 15 16 17 18 19 20 21 22 23 24 25 26 27 28 29 30 31 32 33 34 35 36 37 38 39 40 41 42 43 44 45 46 47 48 49 50

000
ASUS43 KOAX 031510
RWRNE

WEATHER ROUNDUP FOR NEBRASKA
NATIONAL WEATHER SERVICE OMAHA NE
1000 AM CDT THU SEP 03 2015

NOTES: SATELLITE DATA IS BEING USED TO AUGMENT CLOUD COVER ABOVE
       12000 FEET.
       "FAIR" INDICATES FEW OR NO CLOUDS BELOW 12,000 FEET WITH NO
       SIGNIFICANT WEATHER AND/OR OBSTRUCTIONS TO VISIBILITY.

  * THESE STATIONS DO NOT REPORT WEATHER SUCH AS RAIN...SNOW OR FOG.

NEZ001>004-019>022-054>056-031600-
NEBRASKA PANHANDLE

CITY           SKY/WX    TMP DP  RH WIND       PRES   REMARKS
SCOTTSBLUFF    MOSUNNY   73  54  51 W5        29.92F
ALLIANCE       MOSUNNY   73  51  46 S5        29.91F
CHADRON        MOSUNNY   80  51  36 CALM      29.85S
KIMBALL        MOSUNNY   76  47  35 NW5       29.98S
SIDNEY         MOSUNNY   79  47  32 NW7       29.96S
$$

NEZ057>060-069>072-079>082-031600-
SOUTHWEST NEBRASKA

CITY           SKY/WX    TMP DP  RH WIND       PRES   REMARKS
NORTH PLATTE   SUNNY     73  61  65 CALM      29.85S
IMPERIAL       MOSUNNY   73  60  63 N7        29.87S
LEXINGTON      SUNNY     78  62  57 S10       29.83F
MCCOOK         SUNNY     75  59  57 VRB3      29.84S
OGALLALA       MOSUNNY   72  62  71 CALM      29.88S
$$

NEZ005>010-023>029-035>040-094-031600-
NORTH CENTRAL NEBRASKA

CITY           SKY/WX    TMP DP  RH WIND       PRES   REMARKS
VALENTINE      SUNNY     79  61  53 CALM      29.83S
AINSWORTH      SUNNY     82  66  58 SE5       29.84R
BROKEN BOW     SUNNY     76  63  64 S6        29.84F
O`NEILL        SUNNY     75  67  75 S5        29.84R
ORD            SUNNY     77  62  59 S6        29.82S
THEDFORD       SUNNY     78  63  60 SE3       29.86S
$$

NEZ041-046>049-061>064-073>077-083>087-031600-
SOUTH CENTRAL NEBRASKA

CITY           SKY/WX    TMP DP  RH WIND       PRES   REMARKS
GRAND ISLAND   SUNNY     81  62  52 S13       29.84S
AURORA         SUNNY     78  64  60 S14       29.84S
HASTINGS       SUNNY     79  63  57 S12G18    29.84F
HEBRON         SUNNY     81  60  49 S16       29.86R
HOLDREGE       SUNNY     78  59  51 S14       29.84S
KEARNEY *      SUNNY     79  61  53 S14       29.84R
YORK           SUNNY     77  66  69 S14       29.85S
$$

NEZ011>018-030>034-042>045-031600-
NORTHEAST NEBRASKA

CITY           SKY/WX    TMP DP  RH WIND       PRES   REMARKS
NORFOLK        SUNNY     78  66  66 S9        29.83S
ALBION         SUNNY     75  65  72 S3        29.84S
BLAIR          SUNNY     78  67  68 S12G17    29.87S
COLUMBUS *     SUNNY     79  64  61 S7        29.84S
FREMONT        SUNNY     80  67  64 S6        29.86S
TEKAMAH        SUNNY     79  71  76 SE8       29.86R
WAYNE          SUNNY     76  70  80 S8        29.85S
$$

NEZ050>053-065>068-078-088>093-031600-
SOUTHEAST NEBRASKA

CITY           SKY/WX    TMP DP  RH WIND       PRES   REMARKS
LINCOLN        SUNNY     83  66  56 S12       29.86R
OMAHA EPPLEY   MOSUNNY   80  68  66 S14       29.87S
BEATRICE       MOSUNNY   80  65  60 S14       29.87S
FALLS CITY     MOSUNNY   81  68  64 S13       29.90F
NEBRASKA CITY  SUNNY     79  64  58 S13G20    29.89R
PLATTSMOUTH    SUNNY     78  66  67 S8        29.88R
$$

NEZ044-045-051>053-067-031600-
OMAHA AREA

CITY           SKY/WX    TMP DP  RH WIND       PRES   REMARKS
OMAHA EPPLEY   MOSUNNY   80  68  66 S14       29.87S
BLAIR          SUNNY     78  67  68 S12G17    29.87S
FREMONT        SUNNY     80  67  64 S6        29.86S
MILLARD        SUNNY     80  69  70 SE9       29.87R
OFFUTT AFB     SUNNY     79  69  71 SE9       29.87R
PLATTSMOUTH    SUNNY     78  66  67 S8        29.88R
WAHOO          FAIR      79  69  71 S8        29.86R
$$




USA.gov is the U.S. government's official web portal to all federal, state and local government web resources and services.